• MPC Preparation (Info)

  • MPEC 2014-O53 : 2014 OD4

    The following Minor Planet Electronic Circular may be linked-to from your own Web pages, but must not otherwise be redistributed electronically.

    A form allowing access to any MPEC is at the bottom of this page.


    Read MPEC 2014-O52 Read MPEC 2014-O54


    M.P.E.C. 2014-O53                                Issued 2014 July 28, 14:07 UT
    
         The Minor Planet Electronic Circulars contain information on unusual
             minor planets and routine data on comets.  They are published
       on behalf of Commission 20 of the International Astronomical Union by the
              Minor Planet Center, Smithsonian Astrophysical Observatory,
                              Cambridge, MA 02138, U.S.A.
    
                 Prepared using the Tamkin Foundation Computer Network
    
                                  MPC@CFA.HARVARD.EDU
                URL https://www.minorplanetcenter.net/    ISSN 1523-6714
    
                                       2014 OD4
    
    Observations:
         K14O04D* C2014 07 25.52654 22 46 33.411-16 14 39.71         21.1 wLEO053F51
         K14O04D  C2014 07 25.53865 22 46 28.393-16 12 11.60         21.0 wLEO053F51
         K14O04D  C2014 07 25.56287 22 46 18.220-16 07 12.20         20.5 wLEO053F51
         K14O04D _C2014 07 26.42477122 40 59.698-13 08 35.65         20.1 RtEO053568
         K14O04D _C2014 07 26.42716322 40 58.728-13 08 06.06         19.9 RtEO053568
         K14O04D _C2014 07 26.42841622 40 58.218-13 07 50.45         20.0 RtEO053568
         K14O04D KC2014 07 28.29472 22 29 20.80 -06 37 33.6          20.4 RqEO053H36
         K14O04D KC2014 07 28.30254 22 29 17.47 -06 35 56.0          20.1 RqEO053H36
         K14O04D KC2014 07 28.31527 22 29 12.39 -06 33 17.1          19.9 RqEO053H36
         K14O04D KC2014 07 28.33136 22 29 05.91 -06 29 56.0          20.4 RqEO053H36
         K14O04D KC2014 07 28.34211 22 29 00.75 -06 27 41.3          20.2 VqEO053H21
         K14O04D KC2014 07 28.34647 22 28 59.00 -06 26 47.7          21.1 VqEO053H21
         K14O04D HC2014 07 28.35124 22 28 57.05 -06 25 47.1                qEO053H21
    
    Observer details:
    568 Mauna Kea.  Observers R. J. Wainscoat, P. Forshay.  Measurers M. Micheli,
        R. J. Wainscoat.  3.6-m Canada-France-Hawaii Telescope + CCD.
    F51 Pan-STARRS 1, Haleakala.  Observers N. Primak, A. Schultz, T. Goggia,
        M. Willman.  1.8-m Ritchey-Chretien + CCD.
    H21 Astronomical Research Observatory, Westfield.  Observer R. Holmes.
        Measurers L. Buzzi, S. Foglia, T. Vorobjov, T. Linder.  0.61-m f/4.0
        astrograph + CCD.
    H36 Sandlot Observatory, Scranton.  Observer G. Hug.  0.56-m reflector + CCD.
    
    Orbital elements:
    2014 OD4                                                 Earth MOID = 0.0707 AU
    Epoch 2014 May 23.0 TT = JDT 2456800.5                  MPC
    M 327.88134              (2000.0)            P               Q
    n   0.68070924     Peri.  342.70552     +0.34347908     +0.90452807
    a   1.2798575      Node   306.64469     -0.82012882     +0.15778448
    e   0.1557292      Incl.   18.35681     -0.45761429     +0.39614775
    P   1.45           H   24.4           G   0.15           U   8
    Residuals in seconds of arc
    140725 F51  0.4-  0.5+    140726 568  0.0   0.0     140728 H21  0.3-  0.4+
    140725 F51  0.4+  0.5-    140728 H36 (2.5+  0.9+)   140728 H21  0.2-  0.7-
    140725 F51  0.0   0.0     140728 H36  0.2-  0.6+    140728 H21  0.5-  0.1+
    140726 568  0.1-  0.0     140728 H36  0.5+  0.1+
    140726 568  0.0   0.1-    140728 H36  0.8+  0.4-
    
    Ephemeris:
    2014 OD4                 a,e,i = 1.28, 0.16, 18                  q = 1.0805
    Date    TT    R. A. (2000) Decl.     Delta      r     Elong.  Phase     V
    2014 06 28    01 04 39.7 -63 10 00   0.1833  1.0830   106.5    64.2    23.2
    ...
    2014 07 13    00 01 19.0 -48 12 17   0.1176  1.0808   120.4    54.2    21.9
    ...
    2014 07 21    23 14 49.1 -30 34 36   0.09172 1.0833   135.4    41.2    21.0
    ...
    2014 07 27    22 37 20.4 -11 07 44   0.08377 1.0867   146.9    30.7    20.5
    2014 07 28    22 31 08.1 -07 38 10   0.08376 1.0874   148.0    29.6    20.5
    2014 07 29    22 24 59.1 -04 09 41   0.08414 1.0882   148.7    29.0    20.5
    ...
    2014 08 04    21 50 05.4 +14 32 46   0.09420 1.0934   145.3    31.9    20.8
    ...
    2014 08 12    21 11 43.3 +30 27 53   0.1224  1.1023   134.3    41.1    21.7
    ...
    2014 08 27    20 28 05.6 +41 43 31   0.1931  1.1245   121.9    49.7    22.9
    
    A. U. Tomatic                (C) Copyright 2014 MPC           M.P.E.C. 2014-O53
    

    Read MPEC 2014-O52 Read MPEC 2014-O54


    MPEC number:

    Enter an MPEC number in one of the following forms:

    • 1997-B01 (the full form)
    • J97B01 (the packed version of the full form)
    • B01 (the abbreviated form)